Date String (YYYY-MM-DD hh:mm:ss) UTC,Instrument flags,Ambient pressure (hPa),Sample flow (lpm),Bypass flow (lpm),Sample temperature (°C),Ambient temperature (°C),ASC tube jacket temperature (°C),LED temperature (°C),Box temperature (°C),Sample RH (%),Span deviation,Mass concentration (μg/m³),Mass concentration (μg/m³),Mass concentration (μg/m³)
DateTimeUTC,F1_M11,P_M11,Q1_M11,Q2_M11,T1_M11,T2_M11,T3_M11,T4_M11,T5_M11,U1_M11,ZSPAN_M11,X2_M11,X0_M11,X1_M11
2022-09-27 15:00:00,,0834.0,5.00,0.00,31.0,29.8,00.0,39.6,32.8,15.8,0000.0,0003.86,0010.68,0003.27
2022-09-27 15:01:00,,0834.0,5.01,0.00,31.0,29.8,00.0,39.6,32.8,16.2,0000.0,0003.87,0010.61,0003.27
2022-09-27 15:02:00,,0834.0,4.99,0.00,31.0,29.8,00.0,39.7,32.8,16.6,0000.0,0003.86,0010.38,0003.28
2022-09-27 15:03:00,,0834.0,5.01,0.00,31.0,29.8,00.0,39.7,32.9,15.8,0000.0,0003.83,0009.56,0003.27
2022-09-27 15:04:00,,0834.0,4.99,0.00,31.0,29.8,00.0,39.7,32.9,16.3,0000.0,0003.83,0009.42,0003.26
2022-09-27 15:05:00,,0834.0,5.01,0.00,31.1,29.8,00.0,39.7,32.9,16.9,0000.0,0003.84,0009.51,0003.26
2022-09-27 15:06:00,,0834.0,4.99,0.00,31.1,29.8,00.0,39.7,32.9,16.3,0000.0,0003.84,0009.25,0003.26
2022-09-27 15:07:00,,0834.0,5.01,0.00,31.1,29.8,00.0,39.7,32.9,15.0,0000.0,0003.84,0008.69,0003.25
2022-09-27 15:08:00,,0834.0,5.01,0.00,31.1,29.1,00.0,39.7,32.9,15.7,0000.0,0003.82,0009.04,0003.26
2022-09-27 15:09:00,,0834.0,5.00,0.00,31.1,27.7,00.0,39.7,32.8,15.3,0000.0,0003.82,0008.97,0003.26
2022-09-27 15:10:00,,0834.0,5.00,0.00,31.0,27.1,00.0,39.6,32.6,15.1,0000.0,0003.77,0008.82,0003.25
2022-09-27 15:11:00,,0834.0,4.99,0.00,30.9,27.3,00.0,39.5,32.6,15.6,0000.0,0003.73,0007.92,0003.24
2022-09-27 15:12:00,,0834.0,4.98,0.00,30.8,27.6,00.0,39.5,32.4,15.6,0000.0,0003.75,0007.88,0003.23
2022-09-27 15:13:00,,0834.0,5.00,0.00,30.7,27.9,00.0,39.5,32.4,15.1,0000.0,0003.76,0007.97,0003.22
2022-09-27 15:14:00,,0834.0,5.01,0.00,30.7,28.2,00.0,39.4,32.4,15.3,0000.0,0003.73,0007.96,0003.22
2022-09-27 15:15:00,,0834.0,5.00,0.00,30.7,28.5,00.0,39.4,32.4,15.8,0000.0,0003.72,0009.01,0003.21
2022-09-27 15:16:00,,0834.0,4.99,0.00,30.7,28.7,00.0,39.4,32.3,16.4,0000.0,0003.72,0009.42,0003.22
2022-09-27 15:17:00,,0834.0,5.00,0.00,30.6,28.8,00.0,39.4,32.4,16.2,0000.0,0003.71,0010.28,0003.23
2022-09-27 15:18:00,,0834.0,5.00,0.00,30.6,28.9,00.0,39.4,32.4,16.4,0000.0,0003.69,0010.25,0003.22
2022-09-27 15:19:00,,0834.0,4.99,0.00,30.6,29.0,00.0,39.4,32.4,16.5,0000.0,0003.69,0009.71,0003.21
2022-09-27 15:20:00,,0834.0,5.01,0.00,30.6,29.1,00.0,39.4,32.4,16.8,0000.0,0003.70,0009.83,0003.22
2022-09-27 15:21:00,,0834.0,5.00,0.00,30.6,29.2,00.0,39.4,32.4,16.1,0000.0,0003.73,0010.12,0003.23
2022-09-27 15:22:00,,0834.0,5.01,0.00,30.7,29.3,00.0,39.4,32.4,16.3,0000.0,0003.73,0011.77,0003.23
2022-09-27 15:23:00,,0834.0,4.99,0.00,30.7,29.3,00.0,39.4,32.5,16.2,0000.0,0003.73,0011.76,0003.23
2022-09-27 15:24:00,,0834.0,4.99,0.00,30.7,29.3,00.0,39.4,32.5,16.4,0000.0,0003.72,0011.67,0003.23
2022-09-27 15:25:00,,0834.0,5.01,0.00,30.7,29.4,00.0,39.4,32.5,16.4,0000.0,0003.75,0012.45,0003.24
2022-09-27 15:26:00,,0834.0,4.99,0.00,30.7,29.4,00.0,39.4,32.6,16.0,0000.0,0003.74,0011.83,0003.24
2022-09-27 15:27:00,,0834.0,5.01,0.00,30.7,29.5,00.0,39.4,32.6,15.4,0000.0,0003.73,0011.79,0003.22
2022-09-27 15:28:00,,0834.0,4.99,0.00,30.8,29.5,00.0,39.4,32.6,15.5,0000.0,0003.73,0011.06,0003.21
2022-09-27 15:29:00,,0834.0,5.00,0.00,30.8,29.6,00.0,39.4,32.6,15.3,0000.0,0003.75,0010.59,0003.21
2022-09-27 15:30:00,,0834.0,5.00,0.00,30.8,29.6,00.0,39.4,32.6,15.3,0000.0,0003.75,0010.74,0003.22
2022-09-27 15:31:00,,0834.0,4.99,0.00,30.8,29.6,00.0,39.5,32.7,15.4,0000.0,0003.78,0010.77,0003.22
2022-09-27 15:32:00,,0834.0,5.02,0.00,30.8,29.7,00.0,39.5,32.7,15.8,0000.0,0003.79,0010.68,0003.22
2022-09-27 15:33:00,,0834.0,4.99,0.00,30.9,29.4,00.0,39.5,32.7,15.9,0000.0,0003.78,0009.11,0003.22
2022-09-27 15:34:00,,0833.9,5.00,0.00,30.9,28.2,00.0,39.5,32.6,16.0,0000.0,0003.75,0008.85,0003.21
2022-09-27 15:35:00,,0833.9,5.01,0.00,30.8,27.3,00.0,39.4,32.5,15.5,0000.0,0003.76,0008.91,0003.21
2022-09-27 15:36:00,,0833.9,5.00,0.00,30.8,27.5,00.0,39.4,32.4,15.9,0000.0,0003.77,0008.70,0003.22
2022-09-27 15:37:00,,0833.9,5.00,0.00,30.7,27.8,00.0,39.4,32.3,16.4,0000.0,0003.76,0008.41,0003.22
2022-09-27 15:38:00,,0833.9,5.00,0.00,30.6,28.1,00.0,39.3,32.3,16.2,0000.0,0003.75,0008.07,0003.22
2022-09-27 15:39:00,,0833.9,5.00,0.00,30.6,28.3,00.0,39.3,32.3,16.4,0000.0,0003.77,0007.91,0003.23
2022-09-27 15:40:00,,0833.9,5.01,0.00,30.6,28.6,00.0,39.3,32.3,16.7,0000.0,0003.81,0008.19,0003.24
2022-09-27 15:41:00,,0833.9,5.01,0.00,30.6,28.7,00.0,39.3,32.3,16.7,0000.0,0003.81,0008.69,0003.24
2022-09-27 15:42:00,,0834.0,5.06,0.00,30.6,28.9,00.0,39.3,32.4,16.8,0000.0,0003.79,0008.81,0003.24
2022-09-27 15:43:00,,0833.9,5.00,0.00,30.6,29.0,00.0,39.3,32.4,16.4,0000.0,0003.76,0008.84,0003.23
2022-09-27 15:44:00,,0833.9,4.99,0.00,30.6,29.2,00.0,39.3,32.4,16.6,0000.0,0003.74,0008.99,0003.23
2022-09-27 15:45:00,,0833.9,5.01,0.00,30.6,29.2,00.0,39.3,32.4,16.8,0000.0,0003.75,0009.21,0003.23
2022-09-27 15:46:00,,0833.9,5.00,0.00,30.6,29.3,00.0,39.3,32.5,16.9,0000.0,0003.80,0009.58,0003.23
2022-09-27 15:47:00,,0833.9,5.00,0.00,30.6,29.4,00.0,39.3,32.5,17.3,0000.0,0003.80,0010.00,0003.23
2022-09-27 15:48:00,,0834.0,5.00,0.00,30.7,29.4,00.0,39.3,32.5,17.2,0000.0,0003.85,0009.85,0003.22
2022-09-27 15:49:00,,0834.0,4.99,0.00,30.7,29.5,00.0,39.3,32.5,17.6,0000.0,0003.92,0009.52,0003.22
2022-09-27 15:50:00,,0834.0,5.02,0.00,30.7,29.5,00.0,39.4,32.6,17.4,0000.0,0003.98,0009.99,0003.24
2022-09-27 15:51:00,,0834.0,5.00,0.00,30.7,29.6,00.0,39.4,32.6,17.3,0000.0,0003.98,0010.22,0003.24
2022-09-27 15:52:00,,0834.0,5.00,0.00,30.8,29.4,00.0,39.4,32.6,17.4,0000.0,0003.96,0010.59,0003.25
2022-09-27 15:53:00,,0834.0,5.00,0.00,30.8,28.3,00.0,39.4,32.5,17.1,0000.0,0003.97,0010.02,0003.26
2022-09-27 15:54:00,,0834.0,5.00,0.00,30.7,27.3,00.0,39.3,32.4,17.1,0000.0,0003.98,0010.71,0003.26
2022-09-27 15:55:00,,0834.0,5.00,0.00,30.6,27.4,00.0,39.3,32.4,16.9,0000.0,0003.99,0011.06,0003.27
2022-09-27 15:56:00,,0834.0,5.01,0.00,30.6,27.6,00.0,39.3,32.2,16.2,0000.0,0003.99,0011.36,0003.28
2022-09-27 15:57:00,,0834.1,5.01,0.00,30.5,27.9,00.0,39.2,32.2,16.7,0000.0,0003.93,0011.35,0003.28
2022-09-27 15:58:00,,0834.1,4.99,0.00,30.5,28.2,00.0,39.2,32.2,16.7,0000.0,0003.91,0010.95,0003.29
2022-09-27 15:59:00,,0834.1,4.99,0.00,30.5,28.5,00.0,39.2,32.2,16.7,0000.0,0003.87,0010.89,0003.30
